Location: Newark
(29.9790°N, 31.1340°E)
Time: 10:25:21
(UTC+00:00)

Vanguard 3 - Pass Details

Date: 25 January 2021
Orbit: 508 x 3262 km, 33.4° (Epoch: 07 March)

Event Time Altitude Azimuth Distance (km) Brightness Sun altitude
Exits shadow 03:05:17 37° 287° (WNW) 1,972 8.5 -22.5°
Maximum altitude 03:09:11 73° 3° (N) 1,670 8.6 -21.7°
Drops below altitude 10° 03:23:03 10° 88° (E) 5,199 12.4 -18.7°
Sets 03:28:04 0° 90° (E) 6,583 13.4 -17.7°
